Alliance, NE

1:46 PM MDT on April 23, 2018 (GMT -0600)
Alliance Municipal

Weather History for KAIA - September, 2013

Change the Weather History Date:

Thursday, September 5, 2013

  Actual Average Record
Temperature  
Mean Temperature 78 °F 64 °F  
Max Temperature 98 °F 81 °F 100 °F (1998)
Min Temperature 58 °F 48 °F 33 °F (1953)
Degree Days  
Heating Degree Days 0 3  
Month to date heating degree days 0 14  
Since 1 July heating degree days 8 51  
Cooling Degree Days 13 3  
Month to date cooling degree days 51 15  
Year to date cooling degree days 710 538  
Growing Degree Days 28 (Base 50)    
Moisture  
Dew Point 55 °F    
Average Humidity 56    
Maximum Humidity 90    
Minimum Humidity 21    
Precipitation  
Precipitation 0.00 in 0.06 in 1.10 in (1951)
Month to date precipitation T 0.28  
Year to date precipitation 9.06 12.69  
Sea Level Pressure  
Sea Level Pressure 29.98 in    
Wind  
Wind Speed 8 mph (SE)    
Max Wind Speed 18 mph    
Max Gust Speed 24 mph    
Visibility 10 miles    
Events      
T = Trace of Precipitation, MM = Missing Value Source: NWS Daily Summary

Daily Weather History Graph

Daily Weather History Graph

Search for Another Location

Airport or City:

Astronomy

Sep. 05, 2013 Rise Set
Actual Time 6:21 AM MDT 7:17 PM MDT
Civil Twilight 5:52 AM MDT 7:45 PM MDT
Nautical Twilight 5:18 AM MDT 8:19 PM MDT
Astronomical Twilight 4:43 AM MDT 8:55 PM MDT
Moon 6:36 AM MDT (9/5) 7:08 PM MDT (9/5)
Length of Visible Light 13h 53m
Length of Day
12h 56m
New Moon, 0% of the Moon is Illuminated
Sep 5
New Moon
Sep 12
First Quarter
Sep 19
Full
Sep 26
Last Quarter
Oct 4
New

Hourly Weather History & Observations

Time (MDT) Temp. Heat Index Dew Point Humidity Pressure Visibility Wind Dir Wind Speed Gust Speed Precip Events Conditions
12:53 AM 64.0 °F - 57.9 °F 80% 30.01 in 10.0 mi East 3.5 mph - N/A   Clear
1:53 AM 64.0 °F - 55.9 °F 75% 29.99 in 10.0 mi Calm Calm - N/A   Clear
2:53 AM 62.1 °F - 55.9 °F 80% 29.98 in 10.0 mi West 4.6 mph - N/A   Clear
3:53 AM 60.1 °F - 57.0 °F 90% 29.99 in 10.0 mi West 4.6 mph - N/A   Clear
4:53 AM 60.1 °F - 57.9 °F 93% 29.98 in 10.0 mi West 4.6 mph - N/A   Clear
5:53 AM 60.1 °F - 57.0 °F 90% 30.04 in 10.0 mi ENE 3.5 mph - N/A   Clear
6:53 AM 62.1 °F - 55.9 °F 80% 30.05 in 10.0 mi NE 4.6 mph - N/A   Clear
7:53 AM 69.1 °F - 57.9 °F 68% 30.06 in 10.0 mi SE 4.6 mph - N/A   Clear
8:53 AM 77.0 °F - 57.0 °F 50% 30.05 in 10.0 mi East 5.8 mph - N/A   Clear
9:53 AM 82.9 °F 82.4 °F 57.0 °F 41% 30.04 in 10.0 mi East 9.2 mph - N/A   Clear
10:53 AM 86.0 °F 84.2 °F 54.0 °F 33% 30.03 in 10.0 mi SSE 5.8 mph - N/A   Clear
11:53 AM 90.0 °F 87.7 °F 54.0 °F 29% 30.01 in 10.0 mi SSE 9.2 mph - N/A   Clear
12:53 PM 91.9 °F 89.5 °F 53.1 °F 27% 29.99 in 10.0 mi SE 10.4 mph 18.4 mph N/A   Clear
1:53 PM 93.9 °F - 52.0 °F 24% 29.98 in 10.0 mi South 11.5 mph 17.3 mph N/A   Clear
2:53 PM 96.1 °F - 50.0 °F 21% 29.95 in 10.0 mi SSE 16.1 mph 24.2 mph N/A   Clear
3:53 PM 96.1 °F - 50.0 °F 21% 29.95 in 10.0 mi South 13.8 mph - N/A   Clear
4:53 PM 95.0 °F - 51.1 °F 22% 29.93 in 10.0 mi South 6.9 mph - N/A   Clear
5:53 PM 93.9 °F - 51.1 °F 23% 29.93 in 10.0 mi South 11.5 mph - N/A   Clear
6:53 PM 89.1 °F 87.1 °F 55.0 °F 31% 29.92 in 10.0 mi SSE 8.1 mph - N/A   Clear
7:53 PM 79.0 °F - 55.9 °F 45% 29.94 in 10.0 mi SSE 5.8 mph - N/A   Clear
8:53 PM 73.9 °F - 55.9 °F 53% 29.94 in 10.0 mi SSE 9.2 mph - N/A   Clear
9:53 PM 72.0 °F - 55.9 °F 57% 29.93 in 10.0 mi SE 8.1 mph - N/A   Clear
10:53 PM 73.9 °F - 53.1 °F 48% 29.91 in 10.0 mi SE 8.1 mph - N/A   Clear
11:53 PM 71.1 °F - 52.0 °F 51% 29.90 in 10.0 mi SSE 8.1 mph - N/A   Clear